Powrót do katalogu

OPS 9312

IDSCS 2

AktywnyMilitariaMEO
NORAD 2216·PAYLOAD·🇺🇸 United States

Wystrzelony Jun 16, 1966 z Cape Canaveral Space Force Station

Loading…

Następne Przeloty (najbliższe 24 godziny)

TLE

ŚwieżeSource: Space-Track

Epoka: Sep 14, 2026, 12:32 UTC

1 02216U 66053C   26257.52265397 -.00000075  00000-0  00000-0 0  9995
2 02216   8.8192  42.9659 0032676 219.9342 107.4456  1.07850595 50226

Śledź OPS 9312 w czasie rzeczywistym z AllMySat

Download on the App Store